When you browse on this site, cookies collect data to enhance your experience and personalize the content and advertising you see.
Visit our Privacy Policy to learn more. By continuing to use the site, you agree to this use of cookies and data.
  • In Romania
  • List of Countries
  • For 7 days
  • Water Temperature
  • Satellite Maps
  • Weather Map
  • Weather Widgets
  • user-avatar
    Login

    Hourly Weather Escaldes-Engordany

    Today, 25 March, Monday

    Time Temperature Precipitation Wind Pressure Humidity
    00:00 +4°C° 0 mm 1 mps 640 mmHg 82%
    01:00 +3°C° 0 mm 2 mps 640 mmHg 78%
    02:00 +2°C° 0 mm 2 mps 640 mmHg 75%
    03:00 +2°C° 0 mm 2 mps 639 mmHg 71%
    04:00 +2°C° 0 mm 2 mps 639 mmHg 70%
    05:00 +2°C° 0 mm 2 mps 639 mmHg 69%
    06:00 +1°C° 0 mm 2 mps 639 mmHg 68%
    07:00 +4°C° 0 mm 2 mps 640 mmHg 59%
    08:00 +6°C° 0 mm 2 mps 641 mmHg 50%
    09:00 +9°C° 0 mm 2 mps 642 mmHg 41%
    10:00 +10°C° 0 mm 2 mps 642 mmHg 39%
    11:00 +12°C° 0 mm 2 mps 642 mmHg 36%
    12:00 +11°C° 0 mm 3 mps 642 mmHg 34%
    13:00 +11°C° 0 mm 3 mps 642 mmHg 35%
    14:00 +11°C° 0 mm 3 mps 641 mmHg 37%
    15:00 +10°C° 0 mm 3 mps 640 mmHg 38%
    16:00 +8°C° 0 mm 3 mps 640 mmHg 47%
    17:00 +5°C° 0 mm 3 mps 639 mmHg 56%
    18:00 +3°C° 0 mm 3 mps 638 mmHg 65%
    19:00 +2°C° 0 mm 3 mps 638 mmHg 70%
    20:00 +1°C° 0 mm 3 mps 639 mmHg 76%
    21:00 0°C° 0 mm 3 mps 639 mmHg 82%
    22:00 -1°C° 0 mm 4 mps 639 mmHg 83%
    23:00 -1°C° 0 mm 4 mps 639 mmHg 84%

    Tomorrow, 26 March, Tuesday

    Time Temperature Precipitation Wind Pressure Humidity
    00:00 -1°C° 0 mm 4 mps 639 mmHg 84%
    01:00 -2°C° 0 mm 4 mps 639 mmHg 83%
    02:00 -2°C° 0 mm 4 mps 639 mmHg 81%
    03:00 -3°C° 0 mm 4 mps 639 mmHg 79%
    04:00 -3°C° 0 mm 4 mps 639 mmHg 74%
    05:00 -4°C° 0 mm 3 mps 639 mmHg 68%
    06:00 -4°C° 0 mm 3 mps 639 mmHg 62%
    07:00 -2°C° 0 mm 4 mps 640 mmHg 48%
    08:00 0°C° 0 mm 4 mps 641 mmHg 33%
    09:00 +3°C° 0 mm 4 mps 642 mmHg 19%
    10:00 +4°C° 0 mm 4 mps 642 mmHg 18%
    11:00 +6°C° 0 mm 4 mps 642 mmHg 18%
    12:00 +7°C° 0 mm 4 mps 642 mmHg 17%
    13:00 +6°C° 0 mm 4 mps 641 mmHg 20%
    14:00 +6°C° 0 mm 4 mps 641 mmHg 23%
    15:00 +6°C° 0 mm 4 mps 641 mmHg 27%
    16:00 +4°C° 0 mm 4 mps 640 mmHg 35%
    17:00 +2°C° 0 mm 3 mps 640 mmHg 42%
    18:00 0°C° 0 mm 3 mps 639 mmHg 50%
    19:00 +1°C° 0 mm 2 mps 640 mmHg 55%
    20:00 -1°C° 0 mm 2 mps 640 mmHg 59%
    21:00 -2°C° 0 mm 2 mps 640 mmHg 63%
    22:00 -2°C° 0 mm 2 mps 640 mmHg 63%
    23:00 -2°C° 0 mm 2 mps 640 mmHg 62%

    Day after tomorrow, 27 March, Wednesday

    Time Temperature Precipitation Wind Pressure Humidity
    00:00 -2°C° 0 mm 2 mps 640 mmHg 62%
    01:00 -2°C° 0 mm 2 mps 640 mmHg 62%
    02:00 -2°C° 0 mm 2 mps 640 mmHg 63%
    03:00 -3°C° 0 mm 2 mps 640 mmHg 63%
    04:00 -3°C° 0 mm 2 mps 640 mmHg 58%
    05:00 -3°C° 0 mm 2 mps 640 mmHg 52%
    06:00 -1°C° 0 mm 1 mps 640 mmHg 47%
    07:00 +1°C° 0 mm 2 mps 641 mmHg 38%
    08:00 +4°C° 0 mm 2 mps 642 mmHg 29%
    09:00 +7°C° 0 mm 2 mps 643 mmHg 20%
    10:00 +8°C° 0 mm 2 mps 643 mmHg 20%
    11:00 +9°C° 0 mm 2 mps 644 mmHg 19%
    12:00 +10°C° 0 mm 2 mps 644 mmHg 18%
    13:00 +10°C° 0 mm 2 mps 643 mmHg 22%
    14:00 +10°C° 0 mm 2 mps 643 mmHg 25%
    15:00 +10°C° 0 mm 3 mps 643 mmHg 28%
    16:00 +8°C° 0 mm 2 mps 642 mmHg 38%
    17:00 +6°C° 0 mm 2 mps 641 mmHg 48%
    18:00 +3°C° 0 mm 2 mps 641 mmHg 58%
    19:00 +2°C° 0 mm 2 mps 641 mmHg 65%
    20:00 +1°C° 0 mm 2 mps 641 mmHg 72%
    21:00 +1°C° 0 mm 1 mps 641 mmHg 79%
    22:00 +1°C° 0 mm 1 mps 641 mmHg 78%
    23:00 +1°C° 0 mm 1 mps 641 mmHg 78%

    28 March, Thursday

    Time Temperature Precipitation Wind Pressure Humidity
    00:00 +1°C° 0 mm 1 mps 641 mmHg 78%
    01:00 +1°C° 0 mm 1 mps 641 mmHg 80%
    02:00 +1°C° 0 mm 1 mps 641 mmHg 83%
    03:00 +1°C° 0 mm 1 mps 641 mmHg 85%
    04:00 +1°C° 0 mm 1 mps 641 mmHg 85%
    05:00 +1°C° 0 mm 1 mps 641 mmHg 85%
    06:00 +1°C° 0 mm 1 mps 641 mmHg 85%
    07:00 +3°C° 0 mm 1 mps 642 mmHg 72%
    08:00 +6°C° 0 mm 1 mps 643 mmHg 60%
    09:00 +8°C° 0 mm 1 mps 645 mmHg 47%
    10:00 +9°C° 0 mm 1 mps 645 mmHg 45%
    11:00 +10°C° 0 mm 1 mps 645 mmHg 44%
    12:00 +11°C° 0 mm 1 mps 645 mmHg 43%
    13:00 +10°C° 0.1 mm 1 mps 644 mmHg 47%
    14:00 +9°C° 0.1 mm 1 mps 644 mmHg 51%
    15:00 +9°C° 0.1 mm 1 mps 643 mmHg 55%
    16:00 +8°C° 0.1 mm 1 mps 643 mmHg 62%
    17:00 +6°C° 0.1 mm 1 mps 643 mmHg 70%
    18:00 +5°C° 0.1 mm 1 mps 642 mmHg 77%
    19:00 +4°C° 0.1 mm 0 mps 643 mmHg 81%
    20:00 +3°C° 0.1 mm 0 mps 643 mmHg 84%
    21:00 +3°C° 0.1 mm 0 mps 643 mmHg 88%
    22:00 +2°C° 0 mm 0 mps 643 mmHg 89%
    23:00 +2°C° 0 mm 0 mps 643 mmHg 91%

    29 March, Friday

    Time Temperature Precipitation Wind Pressure Humidity
    00:00 +1°C° 0 mm 0 mps 643 mmHg 92%
    01:00 +1°C° 0 mm 0 mps 642 mmHg 92%
    02:00 +1°C° 0 mm 0 mps 642 mmHg 92%
    03:00 0°C° 0 mm 0 mps 642 mmHg 93%
    04:00 0°C° 0 mm 0 mps 642 mmHg 92%
    05:00 0°C° 0 mm 0 mps 642 mmHg 91%
    06:00 0°C° 0 mm 0 mps 643 mmHg 91%
    07:00 +3°C° 0 mm 1 mps 643 mmHg 79%
    08:00 +6°C° 0 mm 1 mps 644 mmHg 67%
    09:00 +8°C° 0 mm 1 mps 645 mmHg 55%
    10:00 +8°C° 0 mm 1 mps 645 mmHg 54%
    11:00 +9°C° 0 mm 1 mps 645 mmHg 53%
    12:00 +9°C° 0 mm 1 mps 645 mmHg 52%
    13:00 +9°C° 0.1 mm 1 mps 644 mmHg 55%
    14:00 +8°C° 0.1 mm 1 mps 644 mmHg 58%
    15:00 +7°C° 0.1 mm 0 mps 644 mmHg 61%
    16:00 +6°C° 0.1 mm 0 mps 643 mmHg 66%
    17:00 +5°C° 0.1 mm 0 mps 643 mmHg 70%
    18:00 +5°C° 0.1 mm 0 mps 643 mmHg 75%
    19:00 +4°C° 0 mm 0 mps 643 mmHg 78%
    20:00 +4°C° 0 mm 0 mps 643 mmHg 82%
    21:00 +3°C° 0 mm 0 mps 644 mmHg 85%
    22:00 +2°C° 0 mm 0 mps 643 mmHg 87%
    23:00 +2°C° 0 mm 0 mps 643 mmHg 89%

    30 March, Saturday

    Time Temperature Precipitation Wind Pressure Humidity
    00:00 +1°C° 0 mm 0 mps 643 mmHg 91%
    01:00 +1°C° 0 mm 0 mps 643 mmHg 91%
    02:00 +1°C° 0 mm 0 mps 643 mmHg 90%
    03:00 +1°C° 0 mm 0 mps 643 mmHg 89%
    04:00 +1°C° 0 mm 0 mps 643 mmHg 89%
    05:00 +1°C° 0 mm 0 mps 643 mmHg 88%
    06:00 +1°C° 0 mm 0 mps 643 mmHg 87%
    07:00 +4°C° 0 mm 0 mps 643 mmHg 77%
    08:00 +7°C° 0 mm 1 mps 644 mmHg 67%
    09:00 +9°C° 0 mm 1 mps 645 mmHg 57%
    10:00 +9°C° 0.1 mm 1 mps 645 mmHg 56%
    11:00 +9°C° 0.1 mm 1 mps 645 mmHg 56%
    12:00 +9°C° 0.1 mm 1 mps 644 mmHg 56%
    13:00 +9°C° 0.2 mm 1 mps 644 mmHg 58%
    14:00 +9°C° 0.2 mm 1 mps 644 mmHg 60%
    15:00 +9°C° 0.2 mm 1 mps 643 mmHg 62%
    16:00 +8°C° 0.1 mm 1 mps 643 mmHg 67%
    17:00 +7°C° 0.1 mm 1 mps 642 mmHg 72%
    18:00 +7°C° 0.1 mm 1 mps 642 mmHg 77%
    19:00 +6°C° 0 mm 1 mps 642 mmHg 81%
    20:00 +5°C° 0 mm 1 mps 642 mmHg 84%
    21:00 +5°C° 0 mm 1 mps 642 mmHg 88%
    22:00 +4°C° 0 mm 1 mps 642 mmHg 89%
    23:00 +3°C° 0 mm 1 mps 641 mmHg 91%
    Show more